Terminal Aerodrome Forecast
Issued by NWS Springfield, MO

Home | Current Version | Previous Version | Text Only | Print | Product List | Glossary On
Versions: 1 2 3 4 5 6 7 8 9 10 11 12 13 14 15 16 17 18 19 20 21 22 23 24 25 26
000
FTUS43 KSGF 210600 AAA
TAFSGF
TAF AMD
KSGF 210632Z 2107/2206 18007KT P6SM OVC025
     FM210900 16008KT 4SM BR OVC012
     FM211700 17011KT P6SM OVC020=

USA.gov is the U.S. government's official web portal to all federal, state and local government web resources and services.